EW1620 Weather Reports


Display with metric or nautical units.
time (UTC)temp
F
wind
direction
speed
MPH
gust
MPH
rain 1hr
in
rain 24hr
in
rain mn
in
humidity
%
barometer
mb
20260831172555 41 95 0.0 0.0 0.00 0.00 0.00 86 1022.1
20260831172054 41 95 0.0 1.0 0.00 0.00 0.00 86 1022.2
20260831171559 41 95 0.0 1.0 0.00 0.00 0.00 86 1022.3
20260831171053 41 95 0.0 1.0 0.00 0.00 0.00 85 1022.3
20260831170553 42 95 0.0 1.0 0.00 0.00 0.00 85 1022.3
20260831170054 42 95 0.0 0.0 0.00 0.00 0.00 85 1022.4
20260831165552 42 95 0.0 0.0 0.00 0.00 0.00 85 1022.5
20260831165051 42 95 0.0 0.0 0.00 0.00 0.00 85 1022.6
20260831164549 42 95 0.0 0.0 0.00 0.00 0.00 85 1022.7
20260831164048 42 95 0.0 1.0 0.00 0.00 0.00 85 1022.8
20260831163548 42 95 0.0 1.0 0.00 0.00 0.00 85 1022.9
20260831163147 42 95 0.0 1.0 0.00 0.00 0.00 85 1023.1
20260831162547 42 95 0.0 0.0 0.00 0.00 0.00 85 1023.1
20260831162048 42 95 0.0 1.0 0.00 0.00 0.00 85 1023.1
20260831161549 42 95 0.0 1.0 0.00 0.00 0.00 85 1023.3
20260831161045 42 95 0.0 0.0 0.00 0.00 0.00 85 1023.4
20260831160542 42 95 0.0 1.0 0.00 0.00 0.00 84 1023.4
20260831160041 42 324 0.0 1.0 0.00 0.00 0.00 84 1023.5
20260831155540 42 323 0.0 1.0 0.00 0.00 0.00 84 1023.7
20260831155039 42 323 0.0 1.0 0.00 0.00 0.00 84 1023.7
20260831154541 43 323 0.0 1.0 0.00 0.00 0.00 84 1023.8
20260831154036 43 323 0.0 0.0 0.00 0.00 0.00 84 1023.8
20260831153536 43 323 0.0 1.0 0.00 0.00 0.00 83 1023.8
20260831153135 43 323 0.0 1.0 0.00 0.00 0.00 83 1023.9
20260831152536 43 323 0.0 1.0 0.00 0.00 0.00 83 1023.9
20260831152036 43 323 0.0 1.0 0.00 0.00 0.00 83 1024.0
20260831151536 43 332 0.0 1.0 0.00 0.00 0.00 83 1024.0
20260831151035 43 332 0.0 1.0 0.00 0.00 0.00 83 1024.0
20260831150533 43 332 0.0 0.0 0.00 0.00 0.00 83 1024.0
20260831150033 44 332 0.0 0.0 0.00 0.00 0.00 83 1024.1
20260831145534 44 332 0.0 0.0 0.00 0.00 0.00 82 1024.1
20260831145034 44 332 0.0 1.0 0.00 0.00 0.00 82 1024.2
20260831144530 44 332 0.0 1.0 0.00 0.00 0.00 82 1024.3
20260831144030 44 332 0.0 1.0 0.00 0.00 0.00 82 1024.3
20260831143536 44 332 0.0 1.0 0.00 0.00 0.00 82 1024.4
20260831143129 44 332 0.0 1.0 0.00 0.00 0.00 82 1024.4
20260831142532 44 332 0.0 1.0 0.00 0.00 0.00 82 1024.4
20260831142030 45 332 0.0 1.0 0.00 0.00 0.00 82 1024.5
20260831141530 45 332 0.0 0.0 0.00 0.00 0.00 82 1024.6
20260831141029 45 332 0.0 0.0 0.00 0.00 0.00 82 1024.6
20260831140528 45 332 0.0 0.0 0.00 0.00 0.00 82 1024.7
20260831140027 45 332 0.0 1.0 0.00 0.00 0.00 81 1024.9
20260831135526 45 332 0.0 1.0 0.00 0.00 0.00 81 1025.0
20260831135026 45 332 0.0 1.0 0.00 0.00 0.00 81 1025.1
20260831134525 46 332 0.0 1.0 0.00 0.00 0.00 81 1025.1
20260831134024 46 332 0.0 0.0 0.00 0.00 0.00 81 1025.2
20260831133523 46 332 0.0 0.0 0.00 0.00 0.00 81 1025.3
20260831133124 46 332 0.0 0.0 0.00 0.00 0.00 81 1025.3
20260831132518 46 332 0.0 0.0 0.00 0.00 0.00 81 1025.4
20260831132018 47 332 0.0 0.0 0.00 0.00 0.00 81 1025.4
20260831131518 47 332 0.0 0.0 0.00 0.00 0.00 81 1025.5
20260831131019 47 332 0.0 0.0 0.00 0.00 0.00 81 1025.6
20260831130517 47 332 0.0 1.0 0.00 0.00 0.00 81 1025.7
20260831130016 47 332 0.0 0.0 0.00 0.00 0.00 80 1025.7
20260831125517 47 332 0.0 0.0 0.00 0.00 0.00 80 1025.8
20260831125015 48 332 0.0 0.0 0.00 0.00 0.00 80 1025.9
20260831124515 48 332 0.0 0.0 0.00 0.00 0.00 80 1026.0
20260831124013 48 332 0.0 0.0 0.00 0.00 0.00 80 1025.9
20260831123516 48 332 0.0 0.0 0.00 0.00 0.00 79 1026.0
20260831123113 49 332 0.0 1.0 0.00 0.00 0.00 79 1026.0
20260831122516 49 332 0.0 1.0 0.00 0.00 0.00 79 1026.1
20260831122016 49 332 0.0 1.0 0.00 0.00 0.00 79 1026.1
20260831121515 49 332 0.0 1.0 0.00 0.00 0.00 79 1026.1
20260831121019 49 332 0.0 0.0 0.00 0.00 0.00 79 1026.1
20260831120515 50 332 0.0 0.0 0.00 0.00 0.00 79 1026.2
20260831120013 50 332 0.0 1.0 0.00 0.00 0.00 79 1026.2
20260831115513 50 332 0.0 1.0 0.00 0.00 0.00 79 1026.2
20260831115013 50 332 0.0 0.0 0.00 0.00 0.00 79 1026.3
20260831114516 51 332 0.0 0.0 0.00 0.00 0.00 79 1026.3
20260831114012 51 332 0.0 0.0 0.00 0.00 0.00 79 1026.3
20260831113512 51 332 0.0 0.0 0.00 0.00 0.00 79 1026.5
20260831113113 51 332 0.0 1.0 0.00 0.00 0.00 79 1026.5
20260831112523 52 332 0.0 1.0 0.00 0.00 0.00 79 1026.4
20260831112018 52 332 0.0 1.0 0.00 0.00 0.00 79 1026.5
20260831111519 52 332 0.0 1.0 0.00 0.00 0.00 79 1026.5
20260831111017 52 332 0.0 2.0 0.00 0.00 0.00 78 1026.5
20260831110519 52 332 0.0 2.0 0.00 0.00 0.00 78 1026.6
20260831110019 52 323 0.0 2.0 0.00 0.00 0.00 78 1026.7
20260831105516 52 302 1.0 2.0 0.00 0.00 0.00 77 1026.6
20260831105016 53 173 0.0 0.0 0.00 0.00 0.00 77 1026.6
20260831104527 53 173 0.0 0.0 0.00 0.00 0.00 77 1026.7
20260831104015 53 173 0.0 0.0 0.00 0.00 0.00 77 1026.7
20260831103518 54 173 0.0 0.0 0.00 0.00 0.00 77 1026.7
20260831103115 54 173 0.0 0.0 0.00 0.00 0.00 76 1026.7
20260831102508 54 173 0.0 0.0 0.00 0.00 0.00 76 1026.7
20260831102006 55 173 0.0 0.0 0.00 0.00 0.00 76 1026.7
20260831101506 55 173 0.0 0.0 0.00 0.00 0.00 76 1026.7
20260831101005 55 173 0.0 0.0 0.00 0.00 0.00 75 1026.9
20260831100506 56 173 0.0 1.0 0.00 0.00 0.00 75 1026.8
20260831100006 56 173 0.0 1.0 0.00 0.00 0.00 75 1026.8
20260831095512 56 173 0.0 1.0 0.00 0.00 0.00 74 1026.8
20260831095005 57 173 0.0 1.0 0.00 0.00 0.00 74 1026.9
20260831094506 57 173 0.0 1.0 0.00 0.00 0.00 73 1026.8
20260831094005 57 173 0.0 1.0 0.00 0.00 0.00 73 1026.9
20260831093508 58 173 0.0 0.0 0.00 0.00 0.00 72 1026.9
20260831093106 58 173 0.0 0.0 0.00 0.00 0.00 71 1026.9
20260831092512 58 173 0.0 0.0 0.00 0.00 0.00 70 1026.9
20260831092015 59 173 0.0 0.0 0.00 0.00 0.00 70 1026.9
20260831091512 59 173 0.0 0.0 0.00 0.00 0.00 70 1027.0
20260831091012 59 173 0.0 0.0 0.00 0.00 0.00 69 1027.0
20260831090513 60 173 0.0 1.0 0.00 0.00 0.00 68 1027.0
20260831090012 60 173 0.0 1.0 0.00 0.00 0.00 68 1026.9
20260831085512 60 173 0.0 1.0 0.00 0.00 0.00 68 1027.0
20260831085011 61 173 0.0 1.0 0.00 0.00 0.00 68 1026.9
20260831084511 61 173 0.0 1.0 0.00 0.00 0.00 67 1027.0
20260831084011 61 173 0.0 3.0 0.00 0.00 0.00 67 1027.0
20260831083511 62 173 0.0 3.0 0.00 0.00 0.00 67 1027.0
20260831083113 62 163 0.0 2.0 0.00 0.00 0.00 66 1027.0
20260831082504 63 163 0.0 2.0 0.00 0.00 0.00 65 1027.0
20260831082005 63 163 0.0 1.0 0.00 0.00 0.00 65 1027.0
20260831081506 63 163 0.0 2.0 0.00 0.00 0.00 65 1027.0
20260831081008 64 163 0.0 3.0 0.00 0.00 0.00 64 1026.9
20260831080505 64 162 0.0 5.0 0.00 0.00 0.00 64 1026.9
20260831080004 64 163 1.0 5.0 0.00 0.00 0.00 63 1026.9
20260831075508 65 178 0.0 3.0 0.00 0.00 0.00 62 1026.9
20260831075004 65 157 0.0 3.0 0.00 0.00 0.00 61 1026.9
20260831074504 65 158 0.0 3.0 0.00 0.00 0.00 61 1026.9
20260831074006 65 157 1.0 3.0 0.00 0.00 0.00 60 1026.9
20260831073504 66 157 0.0 3.0 0.00 0.00 0.00 60 1026.9
20260831073105 66 158 1.0 3.0 0.00 0.00 0.00 59 1026.8
20260831072505 66 158 1.0 5.0 0.00 0.00 0.00 59 1026.8
20260831072005 67 177 1.0 5.0 0.00 0.00 0.00 59 1026.8
20260831071510 67 133 1.0 4.0 0.00 0.00 0.00 58 1026.8
20260831071005 67 175 1.0 5.0 0.00 0.00 0.00 58 1026.9
20260831070505 67 132 2.0 4.0 0.00 0.00 0.00 57 1026.9
20260831070005 68 193 2.0 5.0 0.00 0.00 0.00 56 1026.9
20260831065506 68 148 1.0 5.0 0.00 0.00 0.00 55 1026.8
20260831065005 68 156 2.0 5.0 0.00 0.00 0.00 54 1026.8
20260831064504 68 92 2.0 4.0 0.00 0.00 0.00 54 1026.9
20260831064003 68 161 2.0 4.0 0.00 0.00 0.00 53 1026.9
20260831063504 69 136 1.0 4.0 0.00 0.00 0.00 52 1026.9
20260831063116 69 132 1.0 4.0 0.00 0.00 0.00 52 1027.0
20260831062502 69 144 1.0 4.0 0.00 0.00 0.00 52 1027.1
20260831062001 69 63 2.0 4.0 0.00 0.00 0.00 52 1027.1
20260831061501 69 158 1.0 5.0 0.00 0.00 0.00 51 1027.1
20260831061001 69 84 2.0 4.0 0.00 0.00 0.00 50 1027.2
20260831060601 69 125 1.0 6.0 0.00 0.00 0.00 49 1027.2
20260831060104 69 98 1.0 6.0 0.00 0.00 0.00 49 1027.3
20260831055559 69 120 2.0 6.0 0.00 0.00 0.00 49 1027.3
20260831055059 69 131 1.0 5.0 0.00 0.00 0.00 49 1027.3
20260831054601 69 140 0.0 3.0 0.00 0.00 0.00 47 1027.4
20260831054058 69 178 1.0 5.0 0.00 0.00 0.00 47 1027.5
20260831053557 69 148 1.0 6.0 0.00 0.00 0.00 47 1027.6
20260831053114 69 127 0.0 3.0 0.00 0.00 0.00 47 1027.6
20260831052559 69 127 1.0 3.0 0.00 0.00 0.00 47 1027.6
20260831052101 69 128 2.0 3.0 0.00 0.00 0.00 47 1027.6
20260831051557 69 183 1.0 4.0 0.00 0.00 0.00 47 1027.7
20260831051057 69 136 2.0 4.0 0.00 0.00 0.00 48 1027.7
20260831050556 69 150 1.0 4.0 0.00 0.00 0.00 47 1027.7
20260831050109 69 123 1.0 4.0 0.00 0.00 0.00 48 1027.8
20260831045554 68 94 1.0 3.0 0.00 0.00 0.00 49 1027.9
20260831045052 68 86 1.0 4.0 0.00 0.00 0.00 50 1027.9
20260831044552 68 94 1.0 4.0 0.00 0.00 0.00 50 1028.1
20260831044051 68 75 1.0 3.0 0.00 0.00 0.00 53 1028.2
20260831043550 68 5 0.0 3.0 0.00 0.00 0.00 51 1028.3
20260831043053 67 140 2.0 4.0 0.00 0.00 0.00 53 1028.4
20260831042547 67 142 1.0 4.0 0.00 0.00 0.00 54 1028.4
20260831042046 67 195 1.0 4.0 0.00 0.00 0.00 53 1028.5
20260831041556 67 156 1.0 4.0 0.00 0.00 0.00 54 1028.5
20260831041045 66 59 0.0 4.0 0.00 0.00 0.00 53 1028.6
20260831040545 66 59 1.0 4.0 0.00 0.00 0.00 54 1028.7
20260831040042 66 110 0.0 4.0 0.00 0.00 0.00 55 1028.8
20260831035543 66 208 1.0 4.0 0.00 0.00 0.00 56 1028.8
20260831035040 66 140 1.0 3.0 0.00 0.00 0.00 56 1029.0
20260831034542 66 61 1.0 3.0 0.00 0.00 0.00 56 1029.1
20260831034038 66 82 1.0 3.0 0.00 0.00 0.00 57 1029.2
20260831033539 65 63 1.0 4.0 0.00 0.00 0.00 56 1029.3
20260831033036 65 214 1.0 7.0 0.00 0.00 0.00 58 1029.4
20260831032539 65 196 1.0 7.0 0.00 0.00 0.00 58 1029.4
20260831032039 64 194 1.0 3.0 0.00 0.00 0.00 60 1029.5
20260831031546 64 178 0.0 5.0 0.00 0.00 0.00 60 1029.6
20260831031036 64 178 1.0 5.0 0.00 0.00 0.00 60 1029.7
20260831030534 64 133 2.0 4.0 0.00 0.00 0.00 60 1029.8
20260831030034 63 103 0.0 4.0 0.00 0.00 0.00 61 1029.8
20260831025531 63 90 1.0 4.0 0.00 0.00 0.00 62 1029.9
20260831025030 63 163 1.0 4.0 0.00 0.00 0.00 61 1030.0
20260831024531 62 82 0.0 4.0 0.00 0.00 0.00 62 1030.1
20260831024028 62 125 2.0 5.0 0.00 0.00 0.00 63 1030.2
20260831023530 62 78 3.0 5.0 0.00 0.00 0.00 65 1030.3
20260831023026 62 134 1.0 4.0 0.00 0.00 0.00 66 1030.5
20260831022524 62 134 1.0 4.0 0.00 0.00 0.00 66 1030.5
20260831022023 62 67 1.0 6.0 0.00 0.00 0.00 66 1030.6
20260831021522 62 147 2.0 6.0 0.00 0.00 0.00 66 1030.7
20260831021021 61 129 1.0 4.0 0.00 0.00 0.00 67 1030.8
20260831020522 61 156 2.0 5.0 0.00 0.00 0.00 67 1030.9
20260831020019 61 163 0.0 4.0 0.00 0.00 0.00 66 1030.9
20260831015523 61 149 1.0 6.0 0.00 0.00 0.00 67 1031.1
20260831015016 61 170 2.0 6.0 0.00 0.00 0.00 68 1031.2
20260831014515 61 196 3.0 5.0 0.00 0.00 0.00 68 1031.3
20260831014014 60 148 2.0 4.0 0.00 0.00 0.00 68 1031.4
20260831013513 60 113 2.0 4.0 0.00 0.00 0.00 68 1031.4
20260831013028 60 163 1.0 4.0 0.00 0.00 0.00 68 1031.5
20260831012518 60 203 2.0 4.0 0.00 0.00 0.00 69 1031.5
20260831012017 59 191 2.0 5.0 0.00 0.00 0.00 70 1031.6
20260831011519 59 136 2.0 5.0 0.00 0.00 0.00 72 1031.6
20260831011013 59 181 1.0 5.0 0.00 0.00 0.00 71 1031.6
20260831010512 58 197 1.0 5.0 0.00 0.00 0.00 71 1031.7
20260831010015 58 153 1.0 4.0 0.00 0.00 0.00 71 1031.8
20260831005510 58 115 1.0 4.0 0.00 0.00 0.00 72 1031.8
20260831005009 58 157 1.0 3.0 0.00 0.00 0.00 72 1031.8
20260831004511 57 132 0.0 3.0 0.00 0.00 0.00 73 1031.8
20260831004008 57 259 1.0 5.0 0.00 0.00 0.00 73 1031.8
20260831003505 57 158 0.0 5.0 0.00 0.00 0.00 73 1031.9
20260831003004 57 22 1.0 3.0 0.00 0.00 0.00 74 1032.0
20260831002501 57 9 1.0 3.0 0.00 0.00 0.00 74 1032.0
20260831002100 56 83 0.0 2.0 0.00 0.00 0.00 76 1032.0
20260831001559 56 150 0.0 3.0 0.00 0.00 0.00 75 1032.0
20260831001058 56 150 0.0 4.0 0.00 0.00 0.00 75 1032.1
20260831000556 56 135 2.0 4.0 0.00 0.00 0.00 76 1032.1
20260831000055 55 163 0.0 3.0 0.00 0.00 0.00 76 1032.2
20260830235554 55 167 1.0 3.0 0.00 0.00 0.00 77 1032.2
20260830235052 55 168 0.0 3.0 0.00 0.00 0.00 77 1032.2
20260830234604 54 126 0.0 5.0 0.00 0.00 0.00 77 1032.2
20260830234049 54 123 1.0 3.0 0.00 0.00 0.00 77 1032.1
20260830233548 54 134 1.0 3.0 0.00 0.00 0.00 78 1032.2
20260830233047 53 153 1.0 3.0 0.00 0.00 0.00 77 1032.2
20260830232045 53 122 0.0 2.0 0.00 0.00 0.00 78 1032.3
20260830231548 53 122 0.0 3.0 0.00 0.00 0.00 78 1032.2
20260830231044 53 121 0.0 3.0 0.00 0.00 0.00 79 1032.3
20260830230542 52 213 0.0 2.0 0.00 0.00 0.00 79 1032.2
20260830230047 52 133 0.0 2.0 0.00 0.00 0.00 80 1032.3
20260830225539 51 133 0.0 2.0 0.00 0.00 0.00 80 1032.2
20260830225038 51 133 0.0 2.0 0.00 0.00 0.00 81 1032.3
20260830224543 50 11 0.0 1.0 0.00 0.00 0.00 82 1032.3
20260830224044 50 11 0.0 2.0 0.00 0.00 0.00 83 1032.4
20260830223533 50 11 0.0 2.0 0.00 0.00 0.00 83 1032.5
20260830223031 49 11 0.0 2.0 0.00 0.00 0.00 84 1032.5
20260830222032 48 11 0.0 2.0 0.00 0.00 0.00 85 1032.5
20260830221527 48 11 0.0 2.0 0.00 0.00 0.00 86 1032.4
20260830221026 47 5 0.0 2.0 0.00 0.00 0.00 86 1032.4
20260830220524 47 5 0.0 2.0 0.00 0.00 0.00 86 1032.4
20260830220023 47 5 0.0 2.0 0.00 0.00 0.00 86 1032.4
20260830215521 46 360 0.0 3.0 0.00 0.00 0.00 86 1032.5
20260830215019 46 349 1.0 4.0 0.00 0.00 0.00 86 1032.5
20260830214520 46 338 1.0 4.0 0.00 0.00 0.00 86 1032.6
20260830214019 46 309 2.0 4.0 0.00 0.00 0.00 87 1032.6
20260830213519 46 319 1.0 4.0 0.00 0.00 0.00 88 1032.5
20260830213016 46 347 2.0 3.0 0.00 0.00 0.00 88 1032.5
20260830212015 46 346 1.0 4.0 0.00 0.00 0.00 88 1032.4
20260830211513 46 349 1.0 4.0 0.00 0.00 0.00 88 1032.4
20260830211012 46 360 1.0 4.0 0.00 0.00 0.00 88 1032.3
20260830210512 46 355 1.0 4.0 0.00 0.00 0.00 88 1032.2
20260830210010 46 344 1.0 3.0 0.00 0.00 0.00 89 1032.2
20260830205513 46 25 1.0 3.0 0.00 0.00 0.00 89 1032.2
20260830205008 46 333 1.0 4.0 0.00 0.00 0.00 89 1032.3
20260830204508 47 355 1.0 4.0 0.00 0.00 0.00 89 1032.3
20260830204007 47 360 1.0 5.0 0.00 0.00 0.00 89 1032.3
20260830203506 47 360 1.0 4.0 0.00 0.00 0.00 89 1032.2
20260830203018 47 333 1.0 4.0 0.00 0.00 0.00 89 1032.2
20260830202006 47 5 1.0 4.0 0.00 0.00 0.00 90 1032.2
20260830201505 48 20 1.0 5.0 0.00 0.00 0.00 90 1032.2
20260830201005 48 25 2.0 4.0 0.00 0.00 0.00 90 1032.1
20260830200502 48 5 1.0 4.0 0.00 0.00 0.00 90 1032.1
20260830200002 48 349 0.0 2.0 0.00 0.00 0.00 90 1032.1
20260830195501 48 277 0.0 1.0 0.00 0.00 0.00 90 1032.2
20260830195001 48 277 0.0 2.0 0.00 0.00 0.00 90 1032.2
20260830194501 48 277 0.0 2.0 0.00 0.00 0.00 90 1032.1
20260830194001 48 259 0.0 1.0 0.00 0.00 0.00 90 1032.1
20260830193603 49 259 0.0 1.0 0.00 0.00 0.00 90 1032.2
20260830193100 49 259 0.0 0.0 0.00 0.00 0.00 90 1032.2
20260830192055 49 259 0.0 0.0 0.00 0.00 0.00 90 1032.1
20260830191557 49 259 0.0 0.0 0.00 0.00 0.00 90 1032.1
20260830191052 49 259 0.0 0.0 0.00 0.00 0.00 90 1032.1
20260830190551 49 259 0.0 0.0 0.00 0.00 0.00 90 1032.1
20260830190049 49 259 0.0 0.0 0.00 0.00 0.00 90 1032.0
20260830185549 49 259 0.0 1.0 0.00 0.00 0.00 90 1032.1
20260830185046 49 259 0.0 2.0 0.00 0.00 0.00 90 1032.1
20260830184544 49 259 0.0 2.0 0.00 0.00 0.00 90 1032.2
20260830184044 49 223 0.0 2.0 0.00 0.00 0.00 90 1032.2
20260830183542 49 223 0.0 1.0 0.00 0.00 0.00 90 1032.1
20260830183044 49 220 0.0 1.0 0.00 0.00 0.00 90 1032.2
20260830182039 49 219 0.0 2.0 0.00 0.00 0.00 90 1032.2
20260830181538 49 219 0.0 2.0 0.00 0.00 0.00 90 1032.2
20260830181039 49 219 0.0 0.0 0.00 0.00 0.00 90 1032.2
20260830180534 49 219 0.0 0.0 0.00 0.00 0.00 90 1032.3
20260830180035 49 219 0.0 0.0 0.00 0.00 0.00 90 1032.3
20260830175532 49 219 0.0 0.0 0.00 0.00 0.00 90 1032.3
20260830175032 49 219 0.0 0.0 0.00 0.00 0.00 89 1032.4
20260830174536 49 219 0.0 0.0 0.00 0.00 0.00 89 1032.4
20260830174029 49 219 0.0 0.0 0.00 0.00 0.00 89 1032.4
20260830173530 49 219 0.0 0.0 0.00 0.00 0.00 90 1032.4
20260830173042 49 219 0.0 0.0 0.00 0.00 0.00 89 1032.5